Location: Wellington
(41.3000°S, 174.7830°E)
Time: 03:34:35
(UTC+13:00)

SPOT 3 Rocket - Pass Details

Date: 24 January 2019
Orbit: 780 x 794 km, 98.8° (Epoch: 21 February)

Event Time Altitude Azimuth Distance (km) Brightness Sun altitude
Rises 21:57:29 0° 170° (S) 3,319 7.2 -11.6°
Reaches altitude 10° 21:59:51 10° 173° (S) 2,380 6.5 -11.9°
Maximum altitude 22:05:01 60° 252° (WSW) 903 4.2 -12.7°
Drops below altitude 10° 22:10:06 10° 331° (NNW) 2,342 5.9 -13.4°
Sets 22:12:25 0° 334° (NNW) 3,261 6.6 -13.7°
